sat.trackr.live / text

‹ back to catalog

STARLINK-1171

NORAD 45062 · 2020-006U

PAYLOAD ACTIVE UNKNOWN

§ Identity

Operator
Country
US
Launch date
2020-01-29
Launch site
AFETR
Launch vehicle
Mass (kg)
RCS (m²)

Purposes: comms

External: N2YO · Heavens-Above · Gunter

§ Orbital elements

Epoch: 2026-05-24T13:22:07.989024Z

Period
91.59 min
Inclination
53.0413°
Eccentricity
0.0001936
Mean motion
15.72272837 rev/d
Perigee alt
351.1 km
Apogee alt
353.7 km
Semi-major
6,730.5 km
B*
4.2712e-4
RAAN
235.3919°
Arg perigee
301.5973°
Mean anomaly
58.4855°
Rev number
34,889

§ Raw data

STARLINK-11711 45062U 20006U   26144.55703691  .00057417  00000+0  42712-3 0  99902 45062  53.0413 235.3919 0001936 301.5973  58.4855 15.72272837348895

JSON: /api/v1/satellites/45062 · /tle

For live sub-satellite position, see the globe view (requires WebGL).

§ Visibility from observer

Set your observer location to see the next 7 days of passes ≥ 10°. The values pass through the URL so the page stays shareable.

No JS? Fill the form by hand. The geolocation button needs JavaScript.